Regional Weather Roundup
Issued by NWS Upton, NY

Current Version | Previous Version | Text Only | Print | Product List | Glossary On
Versions: 1 2 3 4 5 6 7 8 9 10 11 12 13 14 15 16 17 18 19 20 21 22 23 24 25 26 27 28 29 30 31 32 33 34 35 36 37 38 39 40 41 42 43 44 45 46 47 48 49 50
000
ASUS41 KOKX 100804
RWROKX

REGIONAL WEATHER ROUNDUP
NATIONAL WEATHER SERVICE NEW YORK NY
300 AM EST WED FEB 10 2016

NOTE: "FAIR" INDICATES FEW OR NO CLOUDS BELOW 12,000 FEET WITH NO
SIGNIFICANT WEATHER AND/OR OBSTRUCTIONS TO VISIBILITY.

NYZ071-072-176-178-NJZ106-104-100900-
NEW YORK CITY METRO AREA


CITY           SKY/WX    TMP DP  RH WIND       PRES   REMARKS
CENTRAL PARK   CLOUDY    33  29  85 W7        29.60F FOG     WCI  27
LAGUARDIA APRT LGT SNOW  33  28  81 E5        29.58F WCI  29
KENNEDY INTL   LGT SNOW  32  29  88 CALM      29.60F FOG
NEWARK/LIBERTY FRZ DRZL  32  30  92 SW6       29.59F FOG     WCI  26
BRNX BOT. GARD   N/A     32  30  93 E1        29.61R
TETERBORO      LGT SNOW  32  28  85 SW3       29.58F FOG
$$

NYZ177-179-078>081-100900-
LONG ISLAND NEW YORK

CITY           SKY/WX    TMP DP  RH WIND       PRES   REMARKS
FARMINGDALE    LGT SNOW  30  25  81 CALM      29.59F
ISLIP          CLOUDY    28  24  85 CALM      29.58S FOG
SHIRLEY        CLOUDY    26  24  92 CALM      29.60F
RIVERHEAD        N/A     28  23  80 CALM      29.56F
WESTHAMPTON    FLURRIES  24  23  96 CALM      29.61F
EAST HAMPTON   FLURRIES  25  24  94 CALM      29.60S
MONTAUK POINT    N/A     28  27  96 CALM      29.61S
$$

NYZ052-065-067-100900-
HUDSON VALLEY

CITY           SKY/WX    TMP DP  RH WIND       PRES   REMARKS
WHITE PLAINS   LGT SNOW  28  25  88 CALM      29.56F VSB 1
NEWBURGH       NOT AVBL
MONTGOMERY     CLOUDY    29  26  89 SW3       29.54F FOG
POUGHKEEPSIE   CLOUDY    31  25  78 SE3       29.56F
ALBANY         FLURRIES  28  24  85 S6        29.55S WCI  22
$$

NJZ001-105-106-008-010-013-015-019>022-104-100900-
NEW JERSEY

CITY           SKY/WX    TMP DP  RH WIND       PRES   REMARKS
NEWARK/LIBERTY FRZ DRZL  32  30  92 SW6       29.59F FOG     WCI  26
TETERBORO      LGT SNOW  32  28  85 SW3       29.58F FOG
CALDWELL       CLOUDY    31  28  89 SW3       29.58F FOG
MORRISTOWN     CLOUDY    30  28  93 CALM      29.59S FOG
SOMERVILLE     CLOUDY    31  29  92 CALM      29.57F FOG
SUSSEX         MIX PCPN  31  28  89 CALM      29.55F
ANDOVER          N/A     30  27  88 CALM      29.55F
TRENTON        CLOUDY    32  29  88 W5        29.59S FOG     WCI  27
MILLVILLE      CLOUDY    33  29  85 W10       29.63S WCI  25
ATLANTIC CITY  CLOUDY    33  31  92 W9        29.61S FOG     WCI  25
WRIGHTSTOWN    CLOUDY    32  32 100 W5        29.58S WCI  27
TOMS RIVER     CLOUDY    32  28  86 CALM      29.60F
BELMAR         CLOUDY    30  25  80 W3        29.59S
$$

PAZ047>061-062-071-100900-
EASTERN PENNSYLVANIA

CITY           SKY/WX    TMP DP  RH WIND       PRES   REMARKS
PHILADELPHIA   CLOUDY    33  27  78 W8        29.63S WCI  26
ALLENTOWN      CLOUDY    30  26  85 W7        29.58S FOG     WCI  23
SCRANTON       LGT SNOW  30  28  92 SW8       29.54S FOG     WCI  22
$$

CTZ002-004>006-009-010-012-RIZ004-006-007-MAZ004-011-015-100900-
SOUTHERN NEW ENGLAND
 IN CT

CITY           SKY/WX    TMP DP  RH WIND       PRES   REMARKS
BRADLEY INTL   CLOUDY    22  19  89 CALM      29.57F
HARTFORD       CLOUDY    26  21  81 CALM      29.60S
DANBURY        LGT SNOW  28  22  78 CALM      29.57F
WTRBRY/OXFORD  CLOUDY    27  18  69 CALM      29.57S
BRIDGEPORT     LGT SNOW  30  26  85 CALM      29.59F FOG
MERIDEN        CLOUDY    23  20  88 CALM      29.59F
NEW HAVEN      CLOUDY    26  23  88 CALM      29.59F
CHESTER        PTSUNNY   27  23  86 CALM      29.58S
GROTON         CLOUDY    25  22  88 N5        29.60S WCI  19
WILLIMANTIC    MOCLDY    18  13  80 NE3       29.60F

 IN RI

CITY           SKY/WX    TMP DP  RH WIND       PRES   REMARKS
PROVIDENCE     PTCLDY    21  18  88 W5        29.61S WCI  15
BLOCK ISLAND   CLOUDY    28  27  93 CALM      29.58F
WESTERLY       MOCLDY    22  20  92 N3        29.60F

 IN MA

CITY           SKY/WX    TMP DP  RH WIND       PRES   REMARKS
BOSTON         PTCLDY    24  18  77 SW5       29.61S WCI  18
WORCESTER      CLEAR     18  15  88 SW5       29.53S WCI  11
WESTFIELD      CLOUDY    18  15  88 CALM      29.57S
PROVINCETOWN   PTCLDY    24  17  74 CALM      29.61F
NANTUCKET      CLOUDY    31  25  78 NE6       29.60S WCI  25
$$

ANZ330-335-338-340-345-350-353-355-100900-
COASTAL MARINE OBSERVATIONS


STATION/POSITION TIME  SKY/WX   TEMP    WIND        PRES    VSBY  WAVE
                                AIR SEA DIR/SP/G                  HT/PER
                 (UTC)          (F)     (DEG/KT/KT) (MB)    (MI)  (FT/S)
NY HARB ENTRANCE 0650            33 43   50/  2/  4 1002.2          4/12
4S FIRE IS       NOT AVBL
20S FIRE ISLAND  0650            35 44   30/  2/  4 1002.1          5/11
GREAT SOUTH BAY  NOT AVBL
23SW MTP         0750            34 45  140/  4/  6 1001.9          4/12
HUDSON CANYON    0650            38 49              1001.5          5/11
KINGS POINT      0700            31 39  170/  2/  4 1001.8
EXECUTION ROCKS  NOT AVBL
CENTRAL LI SOUND 0700            33     250/  2/  4   N/A           0
EASTERN LI SOUND 0700            32 42   30/  4/  6   N/A
ROBBINS REEF     0700            32     250/  6/  7 1001.5
$$


>>>>>>>>>>>>>>>>>>>>>>>>>>>> KEY <<<<<<<<<<<<<<<<<<<<<<<<<<<
>                                                          <
>     SKY/WX - SKY CONDITION/PRESENT WEATHER               <
>     TMP    - TEMPERATURE IN FAHRENHEIT                   <
>     DP     - DEWPOINT IN FAHRENHEIT                      <
>     RH     - RELATIVE HUMIDITY IN PERCENT                <
>     WIND   - DIRECTION AND SPEED IN MPH                  <
>     PRES   - MEAN SEA LEVEL PRESSURE IN INCHES OF HG     <
>     WCI    - WIND CHILL INDEX                            <
>     VSB    - VISIBILITY IN MILES                         <
>     HX     - HEAT INDEX                                  <
>     TC     - TEMPERATURE IN CELSIUS                      <
>     VRB    - VARIABLE WIND DIRECTION                     <
>                                                          <
>>>>>>>>>>>>>>>>>>>>>>>>>>>> KEY <<<<<<<<<<<<<<<<<<<<<<<<<<<





USA.gov is the U.S. government's official web portal to all federal, state and local government web resources and services.